MDT,Max TemperatureF,Mean TemperatureF,Min TemperatureF,Max Dew PointF,MeanDew PointF,Min DewpointF,Max Humidity, Mean Humidity, Min Humidity, Max Sea Level PressureIn, Mean Sea Level PressureIn, Min Sea Level PressureIn, Max VisibilityMiles, Mean VisibilityMiles, Min VisibilityMiles, Max Wind SpeedMPH, Mean Wind SpeedMPH, Max Gust SpeedMPH,PrecipitationIn, CloudCover, Events, WindDirDegrees
2012-10-1,71,57,43,33,29,23,58,38,18,30.29,30.17,30.04,10,10,10,15,7,22,0.00,0,,229
2012-10-2,75,60,45,27,25,20,45,29,13,30.01,29.92,29.82,10,10,10,28,16,39,0.00,0,,254
2012-10-3,68,49,29,25,18,-9,69,37,5,30.25,29.95,29.80,10,10,9,31,21,46,0.00,0,,267
2012-10-4,54,38,22,21,18,13,81,51,20,30.35,30.19,30.07,10,10,10,18,9,25,0.00,1,,76
2012-10-5,54,40,25,21,16,3,75,45,14,30.25,30.16,30.06,10,10,10,23,10,30,0.00,1,,60
2012-10-6,44,33,21,21,14,6,88,56,23,30.38,30.27,30.21,10,10,10,17,7,23,0.00,1,,74
2012-10-7,52,36,20,10,6,2,62,38,13,30.30,30.18,30.05,10,10,10,15,8,25,0.00,0,,226
2012-10-8,65,49,32,8,4,-1,36,22,8,30.05,29.95,29.83,10,10,5,25,15,35,0.00,0,,250
2012-10-9,65,50,35,26,12,5,64,37,10,30.09,29.95,29.85,10,10,10,23,10,33,0.00,0,,284
2012-10-10,69,49,28,25,21,14,78,46,13,30.15,30.01,29.90,10,10,10,16,7,26,0.00,0,,239
2012-10-11,70,56,42,31,26,23,41,32,22,30.07,29.93,29.87,10,10,10,12,5,16,0.00,3,,208
2012-10-12,60,51,41,44,31,24,70,53,35,29.92,29.88,29.82,10,10,6,16,7,39,0.01,3,Rain,181
2012-10-13,59,50,40,40,38,32,100,74,47,30.24,30.03,29.89,10,9,5,27,18,40,T,6,Rain,247
2012-10-14,61,50,38,37,33,28,82,56,29,30.33,30.22,30.15,10,10,10,22,15,27,0.00,1,,245
2012-10-15,66,52,37,32,30,27,76,50,24,30.14,30.02,29.93,10,10,10,29,15,40,0.00,0,,251
2012-10-16,67,52,36,43,33,22,82,57,31,29.93,29.77,29.56,10,9,1,41,23,62,T,3,Rain,252
2012-10-17,47,37,27,21,14,8,58,40,21,30.20,30.03,29.78,10,10,10,33,22,48,0.00,0,,261
2012-10-18,57,45,32,19,14,10,41,30,19,30.28,30.19,30.13,10,10,10,25,19,35,0.00,0,,262
2012-10-19,64,50,35,24,20,16,52,34,16,30.12,30.00,29.87,10,10,10,25,14,38,0.00,0,,248
2012-10-20,69,56,43,23,20,15,37,27,16,29.83,29.70,29.58,10,10,10,25,10,35,0.00,5,,243
2012-10-21,61,48,35,40,28,22,76,51,26,29.81,29.71,29.61,10,10,9,16,6,20,T,4,Rain,261
2012-10-22,63,52,40,39,35,31,85,58,30,29.74,29.63,29.52,10,10,10,36,18,45,T,2,Thunderstorm,203
2012-10-23,43,37,30,36,29,24,92,76,59,30.00,29.87,29.58,10,6,0,18,9,25,0.04,7,Fog-Rain-Snow,273
2012-10-24,31,26,20,29,25,18,100,89,78,30.18,29.99,29.93,10,4,0,10,6,,0.02,7,Fog-Snow,290
2012-10-25,30,23,16,25,19,12,92,82,72,30.41,30.21,30.09,10,7,0,18,9,20,T,5,Fog-Snow,228
2012-10-26,31,24,16,21,17,12,88,76,63,30.56,30.42,30.25,10,10,10,16,10,,T,2,,237
2012-10-27,43,35,26,29,23,19,75,64,53,30.25,30.18,30.11,10,10,10,25,14,36,0.00,6,,244
2012-10-28,51,45,38,36,32,25,76,65,54,30.12,30.10,30.06,10,10,10,25,15,36,0.00,7,,240
2012-10-29,61,51,40,35,32,30,76,56,35,30.16,30.11,30.04,10,10,10,27,13,36,0.00,2,,250
2012-10-30,61,49,36,31,28,24,75,51,26,30.19,30.14,30.08,10,10,10,17,10,30,0.00,0,,246
2012-10-31,64,47,30,32,26,22,75,47,19,30.22,30.12,30.02,10,10,10,10,5,,0.00,0,,207